User: anonymous   Login
Location: Maiden
(35.5760°N, 81.2120°W)
Time: 12:27:59
(UTC-04:00)
Language:

Cosmos 2151 - Orbit

View from above orbital plane
View from above orbital plane
View from above satellite
View from above satellite

Ground track
Ground track

The orbit data is extracted from the following two-line orbital elements,

1 21422U 91042A   17262.83925704 +.00000209 +00000-0 +18186-4 0  9992
2 21422 082.5022 156.3865 0013899 344.9925 015.0880 14.91862693401536
Epoch (UTC): 19 September 2017 20:08:31
Eccentricity: 0.0013899
inclination: 82.5022°
perigee height: 582 km
apogee height: 602 km
right ascension of ascending node: 156.3865°
argument of perigee: 344.9925°
revolutions per day: 14.91862693
mean anomaly at epoch: 15.0880°
orbit number at epoch: 40153

The dashed part of the orbit path shows where the satellite is in the earth's shadow,  

DLR